• In France
  • List of Countries
  • For 7 days
  • Water Temperature
  • Satellite Maps
  • Weather Map
  • Weather Widgets
  • user-avatar
    Login

    Hourly Weather Salgotarjan

    Today, 18 July, Wednesday

    Time Temperature Precipitation Wind Pressure Humidity
    00:00 +18°C° 0.2 mm 3 mps 725 mmHg 88%
    01:00 +17°C° 0 mm 3 mps 725 mmHg 88%
    02:00 +17°C° 0.6 mm 3 mps 725 mmHg 90%
    03:00 +17°C° 0.6 mm 3 mps 725 mmHg 91%
    04:00 +17°C° 0.6 mm 3 mps 725 mmHg 93%
    05:00 +17°C° 0.7 mm 3 mps 725 mmHg 91%
    06:00 +18°C° 0.7 mm 3 mps 725 mmHg 90%
    07:00 +19°C° 0.7 mm 3 mps 725 mmHg 88%
    08:00 +19°C° 0.3 mm 4 mps 725 mmHg 85%
    09:00 +20°C° 0.3 mm 4 mps 725 mmHg 82%
    10:00 +21°C° 0.3 mm 5 mps 726 mmHg 80%
    11:00 +21°C° 0.3 mm 5 mps 726 mmHg 78%
    12:00 +21°C° 0.3 mm 6 mps 726 mmHg 77%
    13:00 +21°C° 0.3 mm 7 mps 726 mmHg 75%
    14:00 +21°C° 0 mm 6 mps 726 mmHg 75%
    15:00 +21°C° 0 mm 6 mps 726 mmHg 75%
    16:00 +21°C° 0 mm 6 mps 726 mmHg 75%
    17:00 +20°C° 0 mm 5 mps 726 mmHg 77%
    18:00 +20°C° 0 mm 4 mps 726 mmHg 79%
    19:00 +19°C° 0 mm 4 mps 726 mmHg 81%
    20:00 +19°C° 0.1 mm 3 mps 726 mmHg 83%
    21:00 +18°C° 0.1 mm 3 mps 726 mmHg 86%
    22:00 +18°C° 0.1 mm 3 mps 726 mmHg 88%
    23:00 +18°C° 0.3 mm 2 mps 726 mmHg 90%

    Tomorrow, 19 July, Thursday

    Time Temperature Precipitation Wind Pressure Humidity
    00:00 +17°C° 0.3 mm 2 mps 726 mmHg 92%
    01:00 +17°C° 0.3 mm 2 mps 726 mmHg 94%
    02:00 +17°C° 0.1 mm 2 mps 726 mmHg 94%
    03:00 +17°C° 0.1 mm 2 mps 726 mmHg 95%
    04:00 +17°C° 0.1 mm 2 mps 726 mmHg 95%
    05:00 +18°C° 0.1 mm 2 mps 727 mmHg 92%
    06:00 +19°C° 0.1 mm 2 mps 727 mmHg 89%
    07:00 +20°C° 0.1 mm 2 mps 727 mmHg 87%
    08:00 +21°C° 0 mm 2 mps 728 mmHg 83%
    09:00 +22°C° 0 mm 3 mps 728 mmHg 78%
    10:00 +24°C° 0 mm 3 mps 728 mmHg 74%
    11:00 +25°C° 0.4 mm 3 mps 728 mmHg 70%
    12:00 +26°C° 0.4 mm 3 mps 729 mmHg 66%
    13:00 +27°C° 0.4 mm 4 mps 729 mmHg 62%
    14:00 +27°C° 0.4 mm 4 mps 729 mmHg 61%
    15:00 +27°C° 0.4 mm 4 mps 729 mmHg 60%
    16:00 +27°C° 0.4 mm 4 mps 729 mmHg 60%
    17:00 +25°C° 0.2 mm 3 mps 729 mmHg 65%
    18:00 +24°C° 0.2 mm 3 mps 729 mmHg 70%
    19:00 +23°C° 0.2 mm 2 mps 729 mmHg 76%
    20:00 +20°C° 0.1 mm 2 mps 729 mmHg 79%
    21:00 +19°C° 0.1 mm 2 mps 729 mmHg 82%
    22:00 +18°C° 0.1 mm 2 mps 729 mmHg 85%
    23:00 +18°C° 0 mm 2 mps 729 mmHg 86%

    Day after tomorrow, 20 July, Friday

    Time Temperature Precipitation Wind Pressure Humidity
    00:00 +18°C° 0 mm 2 mps 729 mmHg 87%
    01:00 +19°C° 0 mm 1 mps 729 mmHg 88%
    02:00 +19°C° 0.1 mm 1 mps 729 mmHg 89%
    03:00 +19°C° 0.1 mm 1 mps 729 mmHg 89%
    04:00 +19°C° 0.1 mm 1 mps 729 mmHg 89%
    05:00 +19°C° 0.2 mm 1 mps 729 mmHg 87%
    06:00 +20°C° 0.2 mm 1 mps 729 mmHg 85%
    07:00 +21°C° 0.2 mm 1 mps 730 mmHg 83%
    08:00 +22°C° 0.2 mm 1 mps 730 mmHg 79%
    09:00 +23°C° 0.2 mm 1 mps 730 mmHg 75%
    10:00 +24°C° 0.2 mm 1 mps 730 mmHg 71%
    11:00 +25°C° 1.1 mm 1 mps 730 mmHg 69%
    12:00 +26°C° 1.1 mm 1 mps 730 mmHg 66%
    13:00 +27°C° 1.1 mm 1 mps 730 mmHg 64%
    14:00 +27°C° 0.9 mm 1 mps 730 mmHg 63%
    15:00 +27°C° 0.9 mm 1 mps 729 mmHg 63%
    16:00 +27°C° 0.9 mm 1 mps 729 mmHg 62%
    17:00 +26°C° 0.2 mm 1 mps 729 mmHg 67%
    18:00 +25°C° 0.2 mm 1 mps 729 mmHg 72%
    19:00 +23°C° 0.2 mm 1 mps 729 mmHg 76%
    20:00 +22°C° 0.1 mm 1 mps 729 mmHg 79%
    21:00 +21°C° 0.1 mm 1 mps 729 mmHg 82%
    22:00 +20°C° 0.1 mm 1 mps 729 mmHg 85%
    23:00 +20°C° 0 mm 1 mps 729 mmHg 87%

    21 July, Saturday

    Time Temperature Precipitation Wind Pressure Humidity
    00:00 +19°C° 0 mm 1 mps 729 mmHg 88%
    01:00 +19°C° 0 mm 1 mps 729 mmHg 89%
    02:00 +19°C° 0 mm 1 mps 729 mmHg 90%
    03:00 +18°C° 0 mm 1 mps 728 mmHg 91%
    04:00 +18°C° 0 mm 1 mps 728 mmHg 92%
    05:00 +20°C° 0 mm 1 mps 728 mmHg 87%
    06:00 +21°C° 0 mm 1 mps 728 mmHg 82%
    07:00 +23°C° 0 mm 1 mps 728 mmHg 77%
    08:00 +24°C° 0 mm 1 mps 729 mmHg 71%
    09:00 +26°C° 0 mm 1 mps 729 mmHg 64%
    10:00 +27°C° 0 mm 1 mps 729 mmHg 58%
    11:00 +28°C° 0.2 mm 2 mps 729 mmHg 55%
    12:00 +29°C° 0.2 mm 2 mps 728 mmHg 52%
    13:00 +30°C° 0.2 mm 2 mps 728 mmHg 49%
    14:00 +30°C° 0.1 mm 2 mps 728 mmHg 50%
    15:00 +29°C° 0.1 mm 2 mps 727 mmHg 51%
    16:00 +29°C° 0.1 mm 1 mps 727 mmHg 52%
    17:00 +28°C° 0.2 mm 1 mps 727 mmHg 57%
    18:00 +27°C° 0.2 mm 1 mps 727 mmHg 62%
    19:00 +25°C° 0.2 mm 1 mps 727 mmHg 67%
    20:00 +24°C° 0.5 mm 1 mps 727 mmHg 71%
    21:00 +23°C° 0.5 mm 1 mps 727 mmHg 74%
    22:00 +22°C° 0.5 mm 1 mps 726 mmHg 78%
    23:00 +21°C° 1.6 mm 1 mps 726 mmHg 82%

    22 July, Sunday

    Time Temperature Precipitation Wind Pressure Humidity
    00:00 +21°C° 1.6 mm 1 mps 726 mmHg 86%
    01:00 +20°C° 1.6 mm 1 mps 726 mmHg 90%
    02:00 +20°C° 0.9 mm 1 mps 726 mmHg 91%
    03:00 +19°C° 0.9 mm 1 mps 726 mmHg 92%
    04:00 +19°C° 0.9 mm 1 mps 726 mmHg 93%
    05:00 +20°C° 0.3 mm 1 mps 726 mmHg 91%
    06:00 +20°C° 0.3 mm 2 mps 726 mmHg 89%
    07:00 +21°C° 0.3 mm 2 mps 726 mmHg 86%
    08:00 +24°C° 0.3 mm 2 mps 726 mmHg 79%
    09:00 +25°C° 0.3 mm 2 mps 726 mmHg 72%
    10:00 +27°C° 0.3 mm 3 mps 726 mmHg 65%
    11:00 +27°C° 2.3 mm 3 mps 726 mmHg 66%
    12:00 +27°C° 2.3 mm 2 mps 726 mmHg 67%
    13:00 +28°C° 2.3 mm 2 mps 725 mmHg 69%
    14:00 +28°C° 1 mm 2 mps 725 mmHg 67%
    15:00 +28°C° 1 mm 2 mps 725 mmHg 65%
    16:00 +28°C° 1 mm 2 mps 725 mmHg 63%
    17:00 +26°C° 1.2 mm 2 mps 725 mmHg 68%
    18:00 +25°C° 1.2 mm 2 mps 725 mmHg 74%
    19:00 +23°C° 1.2 mm 2 mps 725 mmHg 79%
    20:00 +21°C° 1.1 mm 2 mps 725 mmHg 83%
    21:00 +20°C° 1.1 mm 2 mps 725 mmHg 86%
    22:00 +19°C° 1.1 mm 2 mps 725 mmHg 90%
    23:00 +19°C° 0.3 mm 2 mps 725 mmHg 89%

    23 July, Monday

    Time Temperature Precipitation Wind Pressure Humidity
    00:00 +19°C° 0.3 mm 2 mps 725 mmHg 89%
    01:00 +19°C° 0.3 mm 2 mps 725 mmHg 89%
    02:00 +18°C° 0.4 mm 2 mps 725 mmHg 88%
    03:00 +18°C° 0.4 mm 2 mps 726 mmHg 88%
    04:00 +18°C° 0.4 mm 3 mps 726 mmHg 88%
    05:00 +19°C° 0.1 mm 3 mps 726 mmHg 84%
    06:00 +20°C° 0.1 mm 3 mps 727 mmHg 80%
    07:00 +21°C° 0.1 mm 4 mps 727 mmHg 76%
    08:00 +23°C° 0 mm 4 mps 727 mmHg 69%
    09:00 +25°C° 0 mm 4 mps 727 mmHg 61%
    10:00 +27°C° 0 mm 5 mps 728 mmHg 53%
    11:00 +28°C° 0 mm 5 mps 728 mmHg 51%
    12:00 +29°C° 0 mm 4 mps 728 mmHg 49%
    13:00 +29°C° 0 mm 4 mps 728 mmHg 47%
    14:00 +29°C° 0.1 mm 4 mps 728 mmHg 49%
    15:00 +28°C° 0.1 mm 4 mps 728 mmHg 51%
    16:00 +28°C° 0.1 mm 4 mps 727 mmHg 53%
    17:00 +26°C° 0 mm 3 mps 728 mmHg 57%
    18:00 +25°C° 0 mm 3 mps 728 mmHg 61%
    19:00 +22°C° 0 mm 3 mps 728 mmHg 65%
    20:00 +21°C° 0 mm 3 mps 728 mmHg 67%
    21:00 +20°C° 0 mm 3 mps 728 mmHg 70%
    22:00 +19°C° 0 mm 3 mps 729 mmHg 72%
    23:00 +18°C° 0 mm 3 mps 729 mmHg 75%
    Show more